Location: Kaarina
(60.4167°N, 22.4167°E)
Time: 22:51:35
(UTC+03:00)

Cosmos 2098 Rocket - Pass Details

Date: 24 August 2019
Orbit: 368 x 1192 km, 82.9° (Epoch: 22 September)

Event Time Altitude Azimuth Distance (km) Brightness Sun altitude
Rises 22:00:40 0° 345° (NNW) 2,750 7.3 -7.2°
Reaches altitude 10° 22:02:37 10° 344° (NNW) 1,955 6.5 -7.4°
Maximum altitude 22:06:57 78° 259° (W) 730 3.5 -7.8°
Drops below altitude 10° 22:12:28 10° 174° (S) 2,471 5.7 -8.4°
Enters shadow 22:15:08 - 174° (S) 3,519 6.5 -8.6°
